Time,TemperatureF,DewpointF,PressureIn,WindDirection,WindDirectionDegrees,WindSpeedMPH,WindSpeedGustMPH,Humidity,HourlyPrecipIn,Conditions,Clouds,dailyrainin,SoftwareType,DateUTC
2013-03-10 00:00:00,27.0,21.0,30.57,NE,45,7.0,10.0,73,0.00,,,0.00,Rainwise IP-100,2013-03-10 05:00:00,
2013-03-10 00:04:00,27.0,21.0,30.57,NE,45,8.0,10.0,73,0.00,,,0.00,Rainwise IP-100,2013-03-10 05:04:00,
2013-03-10 00:05:00,27.0,21.0,30.58,NE,45,8.0,10.0,73,0.00,,,0.00,Rainwise IP-100,2013-03-10 05:05:00,
2013-03-10 00:09:00,27.0,21.0,30.58,NNE,22,6.0,10.0,73,0.00,,,0.00,Rainwise IP-100,2013-03-10 05:09:00,
2013-03-10 00:20:00,27.0,21.0,30.58,NE,45,7.0,9.0,73,0.00,,,0.00,Rainwise IP-100,2013-03-10 05:20:00,
2013-03-10 00:25:00,27.0,21.0,30.58,NNE,22,8.0,9.0,73,0.00,,,0.00,Rainwise IP-100,2013-03-10 05:25:00,
2013-03-10 00:30:00,27.0,21.0,30.58,NE,45,5.0,9.0,73,0.00,,,0.00,Rainwise IP-100,2013-03-10 05:30:00,
2013-03-10 00:38:00,27.0,21.0,30.59,NE,45,6.0,8.0,73,0.00,,,0.00,Rainwise IP-100,2013-03-10 05:38:00,
2013-03-10 00:43:00,27.0,21.0,30.59,NE,45,7.0,7.0,73,0.00,,,0.00,Rainwise IP-100,2013-03-10 05:43:00,
2013-03-10 00:52:00,27.0,21.0,30.59,NE,45,6.0,9.0,73,0.00,,,0.00,Rainwise IP-100,2013-03-10 05:52:00,
2013-03-10 00:57:00,27.0,21.0,30.59,NE,45,7.0,7.0,73,0.00,,,0.00,Rainwise IP-100,2013-03-10 05:57:00,
2013-03-10 01:09:00,27.0,21.0,30.59,NE,45,7.0,7.0,73,0.00,,,0.00,Rainwise IP-100,2013-03-10 06:09:00,
2013-03-10 01:14:00,27.0,21.0,30.59,NE,45,6.0,8.0,73,0.00,,,0.00,Rainwise IP-100,2013-03-10 06:14:00,
2013-03-10 01:19:00,27.0,21.0,30.59,NNE,22,7.0,7.0,73,0.00,,,0.00,Rainwise IP-100,2013-03-10 06:19:00,
2013-03-10 01:24:00,27.0,21.0,30.59,North,360,4.0,9.0,73,0.00,,,0.00,Rainwise IP-100,2013-03-10 06:24:00,
2013-03-10 01:29:00,26.0,18.0,30.59,NNE,22,5.0,8.0,74,0.00,,,0.00,Rainwise IP-100,2013-03-10 06:29:00,
2013-03-10 01:35:00,26.0,18.0,30.58,NNE,22,4.0,7.0,74,0.00,,,0.00,Rainwise IP-100,2013-03-10 06:35:00,
2013-03-10 01:40:00,26.0,18.0,30.59,NE,45,5.0,7.0,74,0.00,,,0.00,Rainwise IP-100,2013-03-10 06:40:00,
2013-03-10 01:45:00,26.0,18.0,30.59,NNE,22,5.0,6.0,74,0.00,,,0.00,Rainwise IP-100,2013-03-10 06:45:00,
2013-03-10 01:50:00,26.0,18.0,30.59,NNE,22,6.0,7.0,74,0.00,,,0.00,Rainwise IP-100,2013-03-10 06:50:00,
2013-03-10 01:55:00,26.0,18.0,30.59,NNE,22,6.0,7.0,74,0.00,,,0.00,Rainwise IP-100,2013-03-10 06:55:00,
2013-03-10 03:02:00,26.0,18.0,30.59,NNE,22,4.0,7.0,74,0.00,,,0.00,Rainwise IP-100,2013-03-10 07:02:00,
2013-03-10 03:08:00,26.0,18.0,30.59,NNW,337,2.0,7.0,74,0.00,,,0.00,Rainwise IP-100,2013-03-10 07:08:00,
2013-03-10 03:13:00,26.0,18.0,30.59,NNW,337,6.0,7.0,74,0.00,,,0.00,Rainwise IP-100,2013-03-10 07:13:00,
2013-03-10 03:18:00,26.0,18.0,30.59,NNW,337,7.0,7.0,74,0.00,,,0.00,Rainwise IP-100,2013-03-10 07:18:00,
2013-03-10 03:23:00,26.0,18.0,30.59,North,360,6.0,7.0,74,0.00,,,0.00,Rainwise IP-100,2013-03-10 07:23:00,
2013-03-10 03:28:00,26.0,18.0,30.59,NNW,337,0.0,7.0,74,0.00,,,0.00,Rainwise IP-100,2013-03-10 07:28:00,
2013-03-10 03:34:00,25.0,18.0,30.59,NNW,337,4.0,7.0,74,0.00,,,0.00,Rainwise IP-100,2013-03-10 07:34:00,
2013-03-10 03:39:00,25.0,18.0,30.59,NNW,337,7.0,8.0,74,0.00,,,0.00,Rainwise IP-100,2013-03-10 07:39:00,
2013-03-10 03:44:00,26.0,18.0,30.59,NNW,337,6.0,8.0,74,0.00,,,0.00,Rainwise IP-100,2013-03-10 07:44:00,
2013-03-10 03:49:00,26.0,18.0,30.59,North,360,0.0,7.0,74,0.00,,,0.00,Rainwise IP-100,2013-03-10 07:49:00,
2013-03-10 03:54:00,26.0,18.0,30.59,North,360,7.0,7.0,74,0.00,,,0.00,Rainwise IP-100,2013-03-10 07:54:00,
2013-03-10 03:59:00,26.0,18.0,30.58,North,360,4.0,7.0,74,0.00,,,0.00,Rainwise IP-100,2013-03-10 07:59:00,
2013-03-10 04:04:00,26.0,18.0,30.58,North,360,7.0,7.0,74,0.00,,,0.00,Rainwise IP-100,2013-03-10 08:04:00,
2013-03-10 04:09:00,26.0,18.0,30.58,NNW,337,7.0,8.0,74,0.00,,,0.00,Rainwise IP-100,2013-03-10 08:09:00,
2013-03-10 04:14:00,26.0,18.0,30.58,NNW,337,6.0,7.0,74,0.00,,,0.00,Rainwise IP-100,2013-03-10 08:14:00,
2013-03-10 04:19:00,26.0,18.0,30.58,North,360,4.0,9.0,74,0.00,,,0.00,Rainwise IP-100,2013-03-10 08:19:00,
2013-03-10 04:24:00,26.0,18.0,30.58,NNE,22,6.0,11.0,74,0.00,,,0.00,Rainwise IP-100,2013-03-10 08:24:00,
2013-03-10 04:29:00,26.0,18.0,30.58,NE,45,7.0,9.0,74,0.00,,,0.00,Rainwise IP-100,2013-03-10 08:29:00,
2013-03-10 04:34:00,26.0,18.0,30.58,NE,45,3.0,10.0,74,0.00,,,0.00,Rainwise IP-100,2013-03-10 08:34:00,
2013-03-10 04:39:00,26.0,18.0,30.58,ENE,67,7.0,9.0,74,0.00,,,0.00,Rainwise IP-100,2013-03-10 08:39:00,
2013-03-10 04:44:00,26.0,18.0,30.59,ENE,67,5.0,12.0,74,0.00,,,0.00,Rainwise IP-100,2013-03-10 08:44:00,
2013-03-10 04:49:00,26.0,18.0,30.59,NE,45,0.0,12.0,74,0.00,,,0.00,Rainwise IP-100,2013-03-10 08:49:00,
2013-03-10 04:54:00,26.0,18.0,30.59,ENE,67,1.0,7.0,74,0.00,,,0.00,Rainwise IP-100,2013-03-10 08:54:00,
2013-03-10 05:00:00,26.0,18.0,30.59,ENE,67,7.0,10.0,74,0.00,,,0.00,Rainwise IP-100,2013-03-10 09:00:00,
2013-03-10 05:05:00,26.0,18.0,30.60,ENE,67,2.0,7.0,74,0.00,,,0.00,Rainwise IP-100,2013-03-10 09:05:00,
2013-03-10 05:10:00,26.0,18.0,30.60,ENE,67,6.0,9.0,74,0.00,,,0.00,Rainwise IP-100,2013-03-10 09:10:00,
2013-03-10 05:15:00,26.0,18.0,30.60,NE,45,3.0,11.0,74,0.00,,,0.00,Rainwise IP-100,2013-03-10 09:15:00,
2013-03-10 05:20:00,26.0,18.0,30.60,NNW,337,0.0,9.0,74,0.00,,,0.00,Rainwise IP-100,2013-03-10 09:20:00,
2013-03-10 05:25:00,26.0,18.0,30.60,NNW,337,6.0,7.0,74,0.00,,,0.00,Rainwise IP-100,2013-03-10 09:25:00,
2013-03-10 05:30:00,26.0,18.0,30.60,NNE,22,5.0,10.0,74,0.00,,,0.00,Rainwise IP-100,2013-03-10 09:30:00,
2013-03-10 05:35:00,26.0,18.0,30.60,NNE,22,9.0,10.0,74,0.00,,,0.00,Rainwise IP-100,2013-03-10 09:35:00,
2013-03-10 05:40:00,26.0,18.0,30.60,North,360,7.0,10.0,74,0.00,,,0.00,Rainwise IP-100,2013-03-10 09:40:00,
2013-03-10 05:45:00,26.0,18.0,30.60,NNW,337,8.0,10.0,74,0.00,,,0.00,Rainwise IP-100,2013-03-10 09:45:00,
2013-03-10 05:50:00,26.0,18.0,30.60,NNW,337,7.0,11.0,74,0.00,,,0.00,Rainwise IP-100,2013-03-10 09:50:00,
2013-03-10 05:55:00,26.0,18.0,30.60,North,360,4.0,9.0,74,0.00,,,0.00,Rainwise IP-100,2013-03-10 09:55:00,
2013-03-10 06:00:00,26.0,18.0,30.60,NE,45,1.0,9.0,74,0.00,,,0.00,Rainwise IP-100,2013-03-10 10:00:00,
2013-03-10 06:07:00,26.0,18.0,30.60,NE,45,6.0,9.0,74,0.00,,,0.00,Rainwise IP-100,2013-03-10 10:07:00,
2013-03-10 06:12:00,26.0,18.0,30.60,NNE,22,7.0,9.0,74,0.00,,,0.00,Rainwise IP-100,2013-03-10 10:12:00,
2013-03-10 06:17:00,26.0,18.0,30.60,ENE,67,6.0,10.0,74,0.00,,,0.00,Rainwise IP-100,2013-03-10 10:17:00,
2013-03-10 06:22:00,26.0,18.0,30.61,North,360,2.0,8.0,74,0.00,,,0.00,Rainwise IP-100,2013-03-10 10:22:00,
2013-03-10 06:27:00,26.0,18.0,30.61,NNW,337,2.0,7.0,74,0.00,,,0.00,Rainwise IP-100,2013-03-10 10:27:00,
2013-03-10 06:32:00,26.0,18.0,30.61,NNE,22,6.0,6.0,74,0.00,,,0.00,Rainwise IP-100,2013-03-10 10:32:00,
2013-03-10 06:37:00,26.0,18.0,30.61,ENE,67,5.0,9.0,74,0.00,,,0.00,Rainwise IP-100,2013-03-10 10:37:00,
2013-03-10 06:42:00,26.0,18.0,30.61,NE,45,3.0,7.0,74,0.00,,,0.00,Rainwise IP-100,2013-03-10 10:42:00,
2013-03-10 06:47:00,26.0,18.0,30.61,NNE,22,4.0,8.0,74,0.00,,,0.00,Rainwise IP-100,2013-03-10 10:47:00,
2013-03-10 06:52:00,26.0,18.0,30.61,ENE,67,5.0,9.0,74,0.00,,,0.00,Rainwise IP-100,2013-03-10 10:52:00,
2013-03-10 06:57:00,26.0,18.0,30.61,ESE,112,8.0,9.0,74,0.00,,,0.00,Rainwise IP-100,2013-03-10 10:57:00,
2013-03-10 07:02:00,26.0,18.0,30.61,ESE,112,4.0,10.0,74,0.00,,,0.00,Rainwise IP-100,2013-03-10 11:02:00,
2013-03-10 07:07:00,25.0,18.0,30.61,SE,135,1.0,8.0,74,0.00,,,0.00,Rainwise IP-100,2013-03-10 11:07:00,
2013-03-10 07:12:00,26.0,18.0,30.61,ESE,112,0.0,9.0,74,0.00,,,0.00,Rainwise IP-100,2013-03-10 11:12:00,
2013-03-10 07:17:00,26.0,18.0,30.61,ESE,112,7.0,10.0,74,0.00,,,0.00,Rainwise IP-100,2013-03-10 11:17:00,
2013-03-10 07:22:00,26.0,18.0,30.61,ESE,112,6.0,13.0,74,0.00,,,0.00,Rainwise IP-100,2013-03-10 11:22:00,
2013-03-10 07:27:00,26.0,18.0,30.61,ENE,67,7.0,10.0,74,0.00,,,0.00,Rainwise IP-100,2013-03-10 11:27:00,
2013-03-10 07:32:00,25.0,18.0,30.61,ESE,112,9.0,9.0,74,0.00,,,0.00,Rainwise IP-100,2013-03-10 11:32:00,
2013-03-10 07:37:00,26.0,18.0,30.61,East,90,9.0,12.0,74,0.00,,,0.00,Rainwise IP-100,2013-03-10 11:37:00,
2013-03-10 07:42:00,25.0,18.0,30.61,ESE,112,6.0,12.0,74,0.00,,,0.00,Rainwise IP-100,2013-03-10 11:42:00,
2013-03-10 07:47:00,26.0,18.0,30.61,ENE,67,6.0,10.0,74,0.00,,,0.00,Rainwise IP-100,2013-03-10 11:47:00,
2013-03-10 07:52:00,25.0,18.0,30.62,ENE,67,5.0,10.0,74,0.00,,,0.00,Rainwise IP-100,2013-03-10 11:52:00,
2013-03-10 07:57:00,25.0,18.0,30.62,ENE,67,9.0,9.0,74,0.00,,,0.00,Rainwise IP-100,2013-03-10 11:57:00,
2013-03-10 08:02:00,25.0,18.0,30.62,NE,45,4.0,10.0,74,0.00,,,0.00,Rainwise IP-100,2013-03-10 12:02:00,
2013-03-10 08:07:00,25.0,18.0,30.62,NE,45,0.0,9.0,74,0.00,,,0.00,Rainwise IP-100,2013-03-10 12:07:00,
2013-03-10 08:12:00,25.0,18.0,30.62,North,360,3.0,8.0,74,0.00,,,0.00,Rainwise IP-100,2013-03-10 12:12:00,
2013-03-10 08:17:00,25.0,18.0,30.62,North,360,6.0,6.0,74,0.00,,,0.00,Rainwise IP-100,2013-03-10 12:17:00,
2013-03-10 08:22:00,26.0,18.0,30.62,ENE,67,5.0,9.0,74,0.00,,,0.00,Rainwise IP-100,2013-03-10 12:22:00,
2013-03-10 08:27:00,26.0,18.0,30.63,North,360,0.0,6.0,74,0.00,,,0.00,Rainwise IP-100,2013-03-10 12:27:00,
2013-03-10 08:32:00,26.0,18.0,30.63,NNE,22,3.0,5.0,74,0.00,,,0.00,Rainwise IP-100,2013-03-10 12:32:00,
2013-03-10 08:37:00,26.0,18.0,30.63,NNW,337,4.0,9.0,74,0.00,,,0.00,Rainwise IP-100,2013-03-10 12:37:00,
2013-03-10 08:47:00,26.0,18.0,30.63,NNW,337,4.0,7.0,74,0.00,,,0.00,Rainwise IP-100,2013-03-10 12:47:00,
2013-03-10 08:52:00,26.0,18.0,30.64,NNW,337,0.0,8.0,74,0.00,,,0.00,Rainwise IP-100,2013-03-10 12:52:00,
2013-03-10 08:57:00,26.0,18.0,30.64,NW,315,0.0,6.0,74,0.00,,,0.00,Rainwise IP-100,2013-03-10 12:57:00,
2013-03-10 09:02:00,26.0,18.0,30.64,NNE,22,5.0,7.0,74,0.00,,,0.00,Rainwise IP-100,2013-03-10 13:02:00,
2013-03-10 09:07:00,26.0,18.0,30.63,ENE,67,6.0,8.0,74,0.00,,,0.00,Rainwise IP-100,2013-03-10 13:07:00,
2013-03-10 09:12:00,26.0,18.0,30.63,ENE,67,0.0,8.0,74,0.00,,,0.00,Rainwise IP-100,2013-03-10 13:12:00,
2013-03-10 09:17:00,26.0,18.0,30.63,SSE,157,0.0,5.0,74,0.00,,,0.00,Rainwise IP-100,2013-03-10 13:17:00,
2013-03-10 09:22:00,26.0,18.0,30.63,ESE,112,0.0,0.0,74,0.00,,,0.00,Rainwise IP-100,2013-03-10 13:22:00,
2013-03-10 09:27:00,26.0,18.0,30.64,SE,135,0.0,0.0,74,0.00,,,0.00,Rainwise IP-100,2013-03-10 13:27:00,
2013-03-10 09:32:00,26.0,18.0,30.63,East,90,3.0,0.0,74,0.00,,,0.00,Rainwise IP-100,2013-03-10 13:32:00,
2013-03-10 09:37:00,26.0,18.0,30.63,ENE,67,4.0,6.0,74,0.00,,,0.00,Rainwise IP-100,2013-03-10 13:37:00,
2013-03-10 09:42:00,26.0,18.0,30.63,ESE,112,0.0,7.0,74,0.00,,,0.00,Rainwise IP-100,2013-03-10 13:42:00,
2013-03-10 09:47:00,26.0,18.0,30.64,ESE,112,0.0,3.0,74,0.00,,,0.00,Rainwise IP-100,2013-03-10 13:47:00,
2013-03-10 09:52:00,27.0,21.0,30.63,ENE,67,2.0,4.0,73,0.00,,,0.00,Rainwise IP-100,2013-03-10 13:52:00,
2013-03-10 09:57:00,26.0,18.0,30.63,ENE,67,5.0,9.0,74,0.00,,,0.00,Rainwise IP-100,2013-03-10 13:57:00,
2013-03-10 10:02:00,26.0,18.0,30.63,ENE,67,0.0,7.0,74,0.00,,,0.00,Rainwise IP-100,2013-03-10 14:02:00,
2013-03-10 10:07:00,27.0,21.0,30.63,ENE,67,6.0,6.0,73,0.00,,,0.00,Rainwise IP-100,2013-03-10 14:07:00,
2013-03-10 10:12:00,26.0,18.0,30.62,East,90,4.0,9.0,74,0.00,,,0.00,Rainwise IP-100,2013-03-10 14:12:00,
2013-03-10 10:17:00,26.0,18.0,30.62,ESE,112,3.0,7.0,74,0.00,,,0.00,Rainwise IP-100,2013-03-10 14:17:00,
2013-03-10 10:22:00,27.0,21.0,30.62,ENE,67,0.0,7.0,73,0.00,,,0.00,Rainwise IP-100,2013-03-10 14:22:00,
2013-03-10 10:27:00,27.0,21.0,30.62,ESE,112,0.0,3.0,73,0.00,,,0.00,Rainwise IP-100,2013-03-10 14:27:00,
2013-03-10 10:32:00,28.0,21.0,30.63,ESE,112,1.0,4.0,73,0.00,,,0.00,Rainwise IP-100,2013-03-10 14:32:00,
2013-03-10 10:37:00,27.0,21.0,30.63,ENE,67,0.0,3.0,73,0.00,,,0.00,Rainwise IP-100,2013-03-10 14:37:00,
2013-03-10 10:42:00,28.0,21.0,30.63,NNW,337,0.0,0.0,73,0.00,,,0.00,Rainwise IP-100,2013-03-10 14:42:00,
2013-03-10 10:47:00,28.0,21.0,30.63,ESE,112,0.0,3.0,73,0.00,,,0.00,Rainwise IP-100,2013-03-10 14:47:00,
2013-03-10 10:52:00,28.0,21.0,30.63,SE,135,0.0,4.0,73,0.00,,,0.00,Rainwise IP-100,2013-03-10 14:52:00,
2013-03-10 10:57:00,28.0,21.0,30.63,East,90,0.0,5.0,73,0.00,,,0.00,Rainwise IP-100,2013-03-10 14:57:00,
2013-03-10 11:02:00,28.0,21.0,30.63,ESE,112,0.0,2.0,73,0.00,,,0.00,Rainwise IP-100,2013-03-10 15:02:00,
2013-03-10 11:07:00,28.0,21.0,30.63,ESE,112,0.0,0.0,73,0.00,,,0.00,Rainwise IP-100,2013-03-10 15:07:00,
2013-03-10 11:12:00,28.0,21.0,30.63,SE,135,3.0,4.0,73,0.00,,,0.00,Rainwise IP-100,2013-03-10 15:12:00,
2013-03-10 11:17:00,28.0,21.0,30.63,SSE,157,5.0,5.0,73,0.00,,,0.00,Rainwise IP-100,2013-03-10 15:17:00,
2013-03-10 11:22:00,27.0,21.0,30.63,SSE,157,5.0,6.0,73,0.00,,,0.00,Rainwise IP-100,2013-03-10 15:22:00,
2013-03-10 11:27:00,27.0,21.0,30.63,SSE,157,4.0,6.0,73,0.00,,,0.00,Rainwise IP-100,2013-03-10 15:27:00,
2013-03-10 11:32:00,27.0,21.0,30.63,SSE,157,3.0,6.0,73,0.00,,,0.00,Rainwise IP-100,2013-03-10 15:32:00,
2013-03-10 11:37:00,27.0,21.0,30.63,SE,135,4.0,7.0,73,0.00,,,0.00,Rainwise IP-100,2013-03-10 15:37:00,
2013-03-10 11:42:00,27.0,21.0,30.63,ESE,112,5.0,6.0,73,0.00,,,0.00,Rainwise IP-100,2013-03-10 15:42:00,
2013-03-10 11:47:00,27.0,21.0,30.62,ESE,112,3.0,6.0,73,0.00,,,0.00,Rainwise IP-100,2013-03-10 15:47:00,
2013-03-10 11:52:00,27.0,21.0,30.62,SE,135,6.0,7.0,73,0.00,,,0.00,Rainwise IP-100,2013-03-10 15:52:00,
2013-03-10 11:57:00,28.0,21.0,30.62,SE,135,6.0,7.0,73,0.00,,,0.00,Rainwise IP-100,2013-03-10 15:57:00,
2013-03-10 12:02:00,28.0,21.0,30.62,SE,135,6.0,7.0,73,0.00,,,0.00,Rainwise IP-100,2013-03-10 16:02:00,
2013-03-10 12:07:00,28.0,21.0,30.62,SE,135,5.0,6.0,73,0.00,,,0.00,Rainwise IP-100,2013-03-10 16:07:00,
2013-03-10 12:12:00,29.0,23.0,30.62,ESE,112,1.0,6.0,73,0.00,,,0.00,Rainwise IP-100,2013-03-10 16:12:00,
2013-03-10 12:17:00,29.0,23.0,30.62,SE,135,5.0,6.0,73,0.00,,,0.00,Rainwise IP-100,2013-03-10 16:17:00,
2013-03-10 12:22:00,28.0,21.0,30.63,ESE,112,6.0,7.0,73,0.00,,,0.00,Rainwise IP-100,2013-03-10 16:22:00,
2013-03-10 12:27:00,28.0,21.0,30.62,ESE,112,7.0,8.0,73,0.00,,,0.00,Rainwise IP-100,2013-03-10 16:27:00,
2013-03-10 12:33:00,28.0,21.0,30.62,ESE,112,6.0,8.0,73,0.00,,,0.00,Rainwise IP-100,2013-03-10 16:33:00,
2013-03-10 12:38:00,28.0,21.0,30.62,ESE,112,6.0,8.0,73,0.00,,,0.00,Rainwise IP-100,2013-03-10 16:38:00,
2013-03-10 12:43:00,29.0,23.0,30.62,SE,135,6.0,6.0,73,0.00,,,0.00,Rainwise IP-100,2013-03-10 16:43:00,
2013-03-10 12:48:00,29.0,23.0,30.62,ESE,112,6.0,7.0,73,0.00,,,0.00,Rainwise IP-100,2013-03-10 16:48:00,
2013-03-10 12:53:00,29.0,23.0,30.61,ESE,112,7.0,7.0,73,0.00,,,0.00,Rainwise IP-100,2013-03-10 16:53:00,
2013-03-10 12:58:00,29.0,23.0,30.61,ESE,112,7.0,9.0,73,0.00,,,0.00,Rainwise IP-100,2013-03-10 16:58:00,
2013-03-10 13:03:00,29.0,23.0,30.61,ESE,112,7.0,9.0,73,0.00,,,0.00,Rainwise IP-100,2013-03-10 17:03:00,
2013-03-10 13:09:00,29.0,23.0,30.61,ESE,112,7.0,9.0,73,0.00,,,0.00,Rainwise IP-100,2013-03-10 17:09:00,
2013-03-10 13:14:00,29.0,23.0,30.61,SE,135,7.0,9.0,73,0.00,,,0.00,Rainwise IP-100,2013-03-10 17:14:00,
2013-03-10 13:19:00,29.0,23.0,30.61,SE,135,7.0,9.0,73,0.00,,,0.00,Rainwise IP-100,2013-03-10 17:19:00,
2013-03-10 13:24:00,29.0,23.0,30.60,SE,135,7.0,8.0,73,0.00,,,0.00,Rainwise IP-100,2013-03-10 17:24:00,
2013-03-10 13:29:00,29.0,23.0,30.60,SSE,157,7.0,9.0,73,0.00,,,0.00,Rainwise IP-100,2013-03-10 17:29:00,
2013-03-10 13:38:00,30.0,23.0,30.60,SE,135,7.0,8.0,73,0.00,,,0.00,Rainwise IP-100,2013-03-10 17:38:00,
2013-03-10 13:43:00,30.0,23.0,30.59,SE,135,9.0,10.0,73,0.00,,,0.00,Rainwise IP-100,2013-03-10 17:43:00,
2013-03-10 13:51:00,30.0,23.0,30.59,SE,135,10.0,11.0,73,0.00,,,0.00,Rainwise IP-100,2013-03-10 17:51:00,
2013-03-10 13:56:00,30.0,23.0,30.59,SSE,157,9.0,12.0,73,0.00,,,0.00,Rainwise IP-100,2013-03-10 17:56:00,
2013-03-10 14:02:00,30.0,23.0,30.59,SE,135,9.0,11.0,73,0.00,,,0.00,Rainwise IP-100,2013-03-10 18:02:00,
2013-03-10 14:07:00,30.0,23.0,30.58,SE,135,10.0,12.0,73,0.00,,,0.00,Rainwise IP-100,2013-03-10 18:07:00,
2013-03-10 14:12:00,31.0,23.0,30.58,SE,135,9.0,12.0,73,0.00,,,0.00,Rainwise IP-100,2013-03-10 18:12:00,
2013-03-10 14:17:00,31.0,23.0,30.58,SE,135,9.0,12.0,73,0.00,,,0.00,Rainwise IP-100,2013-03-10 18:17:00,
2013-03-10 14:22:00,31.0,23.0,30.58,SE,135,10.0,11.0,73,0.00,,,0.00,Rainwise IP-100,2013-03-10 18:22:00,
2013-03-10 14:27:00,31.0,23.0,30.58,SE,135,9.0,10.0,73,0.00,,,0.00,Rainwise IP-100,2013-03-10 18:27:00,
2013-03-10 14:32:00,32.0,24.0,30.58,SSE,157,10.0,11.0,73,0.00,,,0.00,Rainwise IP-100,2013-03-10 18:32:00,
2013-03-10 14:37:00,32.0,24.0,30.57,SE,135,10.0,12.0,73,0.00,,,0.00,Rainwise IP-100,2013-03-10 18:37:00,
2013-03-10 14:42:00,32.0,24.0,30.57,SSE,157,9.0,13.0,73,0.00,,,0.00,Rainwise IP-100,2013-03-10 18:42:00,
2013-03-10 14:47:00,32.0,24.0,30.57,SSE,157,12.0,13.0,73,0.00,,,0.00,Rainwise IP-100,2013-03-10 18:47:00,
2013-03-10 14:52:00,31.0,23.0,30.57,SE,135,12.0,14.0,73,0.00,,,0.00,Rainwise IP-100,2013-03-10 18:52:00,
2013-03-10 14:57:00,31.0,23.0,30.57,SE,135,12.0,13.0,73,0.00,,,0.00,Rainwise IP-100,2013-03-10 18:57:00,
2013-03-10 15:03:00,32.0,24.0,30.57,SSE,157,10.0,13.0,73,0.00,,,0.00,Rainwise IP-100,2013-03-10 19:03:00,
2013-03-10 15:08:00,32.0,24.0,30.57,SSE,157,10.0,14.0,73,0.00,,,0.00,Rainwise IP-100,2013-03-10 19:08:00,
2013-03-10 15:13:00,32.0,24.0,30.57,SSE,157,12.0,13.0,73,0.00,,,0.00,Rainwise IP-100,2013-03-10 19:13:00,
2013-03-10 15:18:00,31.0,23.0,30.57,SSE,157,12.0,14.0,73,0.00,,,0.00,Rainwise IP-100,2013-03-10 19:18:00,
2013-03-10 15:23:00,32.0,24.0,30.57,SE,135,12.0,13.0,73,0.00,,,0.00,Rainwise IP-100,2013-03-10 19:23:00,
2013-03-10 15:28:00,32.0,24.0,30.57,SE,135,10.0,13.0,73,0.00,,,0.00,Rainwise IP-100,2013-03-10 19:28:00,
2013-03-10 15:33:00,32.0,24.0,30.57,SSE,157,12.0,13.0,73,0.00,,,0.00,Rainwise IP-100,2013-03-10 19:33:00,
2013-03-10 15:38:00,32.0,24.0,30.57,SSE,157,9.0,13.0,73,0.00,,,0.00,Rainwise IP-100,2013-03-10 19:38:00,
2013-03-10 15:43:00,32.0,24.0,30.57,SSE,157,9.0,13.0,73,0.00,,,0.00,Rainwise IP-100,2013-03-10 19:43:00,
2013-03-10 15:48:00,32.0,24.0,30.57,SSE,157,7.0,12.0,73,0.00,,,0.00,Rainwise IP-100,2013-03-10 19:48:00,
2013-03-10 15:53:00,32.0,24.0,30.57,SSE,157,12.0,12.0,73,0.00,,,0.00,Rainwise IP-100,2013-03-10 19:53:00,
2013-03-10 15:58:00,32.0,24.0,30.57,SE,135,12.0,13.0,73,0.00,,,0.00,Rainwise IP-100,2013-03-10 19:58:00,
2013-03-10 16:04:00,32.0,24.0,30.57,SSE,157,11.0,12.0,73,0.00,,,0.00,Rainwise IP-100,2013-03-10 20:04:00,
2013-03-10 16:09:00,32.0,24.0,30.57,SSE,157,9.0,12.0,73,0.00,,,0.00,Rainwise IP-100,2013-03-10 20:09:00,
2013-03-10 16:14:00,33.0,26.0,30.57,SE,135,10.0,11.0,72,0.00,,,0.00,Rainwise IP-100,2013-03-10 20:14:00,
2013-03-10 16:21:00,33.0,26.0,30.57,SSE,157,9.0,11.0,72,0.00,,,0.00,Rainwise IP-100,2013-03-10 20:21:00,
2013-03-10 16:29:00,32.0,24.0,30.57,SSE,157,9.0,12.0,73,0.00,,,0.00,Rainwise IP-100,2013-03-10 20:29:00,
2013-03-10 16:37:00,32.0,24.0,30.56,SSE,157,10.0,12.0,73,0.00,,,0.00,Rainwise IP-100,2013-03-10 20:37:00,
2013-03-10 16:42:00,32.0,24.0,30.56,SE,135,11.0,11.0,73,0.00,,,0.00,Rainwise IP-100,2013-03-10 20:42:00,
2013-03-10 16:49:00,32.0,24.0,30.57,SSE,157,10.0,12.0,73,0.00,,,0.00,Rainwise IP-100,2013-03-10 20:49:00,
2013-03-10 16:55:00,32.0,24.0,30.57,SSE,157,8.0,12.0,73,0.00,,,0.00,Rainwise IP-100,2013-03-10 20:55:00,
2013-03-10 17:00:00,32.0,24.0,30.57,SE,135,10.0,12.0,73,0.00,,,0.00,Rainwise IP-100,2013-03-10 21:00:00,
2013-03-10 17:05:00,33.0,26.0,30.56,SSE,157,10.0,12.0,72,0.00,,,0.00,Rainwise IP-100,2013-03-10 21:05:00,
2013-03-10 17:10:00,32.0,24.0,30.56,SSE,157,10.0,12.0,73,0.00,,,0.00,Rainwise IP-100,2013-03-10 21:10:00,
2013-03-10 17:15:00,32.0,24.0,30.56,SSE,157,7.0,13.0,73,0.00,,,0.00,Rainwise IP-100,2013-03-10 21:15:00,
2013-03-10 17:20:00,32.0,24.0,30.56,SE,135,8.0,12.0,73,0.00,,,0.00,Rainwise IP-100,2013-03-10 21:20:00,
2013-03-10 17:25:00,32.0,24.0,30.56,SE,135,9.0,12.0,73,0.00,,,0.00,Rainwise IP-100,2013-03-10 21:25:00,
2013-03-10 17:30:00,32.0,24.0,30.56,SSE,157,2.0,10.0,73,0.00,,,0.00,Rainwise IP-100,2013-03-10 21:30:00,
2013-03-10 17:35:00,32.0,24.0,30.56,SSE,157,0.0,8.0,73,0.00,,,0.00,Rainwise IP-100,2013-03-10 21:35:00,
2013-03-10 17:40:00,31.0,23.0,30.56,ESE,112,6.0,9.0,73,0.00,,,0.00,Rainwise IP-100,2013-03-10 21:40:00,
2013-03-10 17:46:00,31.0,23.0,30.56,SSE,157,9.0,10.0,73,0.00,,,0.00,Rainwise IP-100,2013-03-10 21:46:00,
2013-03-10 17:51:00,31.0,23.0,30.56,South,180,0.0,10.0,73,0.00,,,0.00,Rainwise IP-100,2013-03-10 21:51:00,
2013-03-10 17:56:00,31.0,23.0,30.56,SE,135,1.0,6.0,73,0.00,,,0.00,Rainwise IP-100,2013-03-10 21:56:00,
2013-03-10 18:01:00,31.0,23.0,30.56,SSE,157,0.0,6.0,73,0.00,,,0.00,Rainwise IP-100,2013-03-10 22:01:00,
2013-03-10 18:06:00,31.0,23.0,30.56,SE,135,2.0,7.0,73,0.00,,,0.00,Rainwise IP-100,2013-03-10 22:06:00,
2013-03-10 18:11:00,30.0,23.0,30.56,SSE,157,5.0,7.0,73,0.00,,,0.00,Rainwise IP-100,2013-03-10 22:11:00,
2013-03-10 18:16:00,30.0,23.0,30.56,South,180,0.0,6.0,73,0.00,,,0.00,Rainwise IP-100,2013-03-10 22:16:00,
2013-03-10 18:21:00,30.0,23.0,30.56,SSE,157,0.0,5.0,73,0.00,,,0.00,Rainwise IP-100,2013-03-10 22:21:00,
2013-03-10 18:26:00,30.0,23.0,30.56,SSW,202,0.0,5.0,73,0.00,,,0.00,Rainwise IP-100,2013-03-10 22:26:00,
2013-03-10 18:31:00,30.0,23.0,30.55,SW,225,0.0,8.0,73,0.00,,,0.00,Rainwise IP-100,2013-03-10 22:31:00,
2013-03-10 18:36:00,29.0,23.0,30.56,SSE,157,0.0,5.0,73,0.00,,,0.00,Rainwise IP-100,2013-03-10 22:36:00,
2013-03-10 18:41:00,29.0,23.0,30.56,WSW,247,0.0,0.0,73,0.00,,,0.00,Rainwise IP-100,2013-03-10 22:41:00,
2013-03-10 18:46:00,29.0,23.0,30.55,SSE,157,2.0,4.0,73,0.00,,,0.00,Rainwise IP-100,2013-03-10 22:46:00,
2013-03-10 18:51:00,29.0,23.0,30.55,SSE,157,0.0,7.0,73,0.00,,,0.00,Rainwise IP-100,2013-03-10 22:51:00,
2013-03-10 18:56:00,29.0,23.0,30.56,WSW,247,0.0,5.0,73,0.00,,,0.00,Rainwise IP-100,2013-03-10 22:56:00,
2013-03-10 19:02:00,29.0,23.0,30.56,WSW,247,0.0,0.0,73,0.00,,,0.00,Rainwise IP-100,2013-03-10 23:02:00,
2013-03-10 19:07:00,29.0,23.0,30.56,South,180,0.0,5.0,73,0.00,,,0.00,Rainwise IP-100,2013-03-10 23:07:00,
2013-03-10 19:12:00,29.0,23.0,30.56,SSE,157,0.0,0.0,73,0.00,,,0.00,Rainwise IP-100,2013-03-10 23:12:00,
2013-03-10 19:17:00,28.0,21.0,30.56,WSW,247,0.0,0.0,73,0.00,,,0.00,Rainwise IP-100,2013-03-10 23:17:00,
2013-03-10 19:22:00,28.0,21.0,30.56,SE,135,0.0,0.0,73,0.00,,,0.00,Rainwise IP-100,2013-03-10 23:22:00,
2013-03-10 19:27:00,28.0,21.0,30.56,South,180,0.0,0.0,73,0.00,,,0.00,Rainwise IP-100,2013-03-10 23:27:00,
2013-03-10 19:33:00,28.0,21.0,30.55,ENE,67,0.0,0.0,73,0.00,,,0.00,Rainwise IP-100,2013-03-10 23:33:00,
2013-03-10 19:38:00,28.0,21.0,30.55,SE,135,0.0,0.0,73,0.00,,,0.00,Rainwise IP-100,2013-03-10 23:38:00,
2013-03-10 19:43:00,27.0,21.0,30.55,SSW,202,0.0,2.0,73,0.00,,,0.00,Rainwise IP-100,2013-03-10 23:43:00,
2013-03-10 19:48:00,27.0,21.0,30.54,West,270,0.0,0.0,73,0.00,,,0.00,Rainwise IP-100,2013-03-10 23:48:00,
2013-03-10 19:53:00,27.0,21.0,30.54,West,270,0.0,0.0,73,0.00,,,0.00,Rainwise IP-100,2013-03-10 23:53:00,
2013-03-10 19:58:00,27.0,21.0,30.54,West,270,0.0,0.0,73,0.00,,,0.00,Rainwise IP-100,2013-03-10 23:58:00,
2013-03-10 20:03:00,27.0,21.0,30.55,West,270,0.0,0.0,73,0.00,,,0.00,Rainwise IP-100,2013-03-11 00:03:00,
2013-03-10 20:08:00,27.0,21.0,30.55,West,270,0.0,0.0,73,0.00,,,0.00,Rainwise IP-100,2013-03-11 00:08:00,
2013-03-10 20:13:00,27.0,21.0,30.55,SSE,157,0.0,0.0,73,0.00,,,0.00,Rainwise IP-100,2013-03-11 00:13:00,
2013-03-10 20:18:00,27.0,21.0,30.55,SSE,157,0.0,3.0,73,0.00,,,0.00,Rainwise IP-100,2013-03-11 00:18:00,
2013-03-10 20:23:00,27.0,21.0,30.54,SSE,157,0.0,3.0,73,0.00,,,0.00,Rainwise IP-100,2013-03-11 00:23:00,
2013-03-10 20:28:00,27.0,21.0,30.54,SSE,157,0.0,0.0,73,0.00,,,0.00,Rainwise IP-100,2013-03-11 00:28:00,
2013-03-10 20:33:00,27.0,21.0,30.53,SSE,157,0.0,0.0,73,0.00,,,0.00,Rainwise IP-100,2013-03-11 00:33:00,
2013-03-10 20:38:00,27.0,21.0,30.53,SSE,157,0.0,0.0,73,0.00,,,0.00,Rainwise IP-100,2013-03-11 00:38:00,
2013-03-10 20:43:00,27.0,21.0,30.53,SSW,202,0.0,0.0,73,0.00,,,0.00,Rainwise IP-100,2013-03-11 00:43:00,
2013-03-10 20:48:00,27.0,21.0,30.54,SW,225,0.0,0.0,73,0.00,,,0.00,Rainwise IP-100,2013-03-11 00:48:00,
2013-03-10 20:53:00,27.0,21.0,30.54,SW,225,0.0,0.0,73,0.00,,,0.00,Rainwise IP-100,2013-03-11 00:53:00,
2013-03-10 20:58:00,26.0,18.0,30.54,SW,225,0.0,0.0,74,0.00,,,0.00,Rainwise IP-100,2013-03-11 00:58:00,
2013-03-10 21:03:00,26.0,18.0,30.54,SE,135,0.0,0.0,74,0.00,,,0.00,Rainwise IP-100,2013-03-11 01:03:00,
2013-03-10 21:08:00,27.0,21.0,30.54,SSE,157,0.0,0.0,73,0.00,,,0.00,Rainwise IP-100,2013-03-11 01:08:00,
2013-03-10 21:13:00,27.0,21.0,30.54,SSE,157,0.0,0.0,73,0.00,,,0.00,Rainwise IP-100,2013-03-11 01:13:00,
2013-03-10 21:18:00,27.0,21.0,30.55,SSE,157,0.0,0.0,73,0.00,,,0.00,Rainwise IP-100,2013-03-11 01:18:00,
2013-03-10 21:28:00,27.0,21.0,30.55,SSE,157,0.0,0.0,72,0.00,,,0.00,Rainwise IP-100,2013-03-11 01:28:00,
2013-03-10 21:34:00,27.0,21.0,30.54,West,270,0.0,0.0,72,0.00,,,0.00,Rainwise IP-100,2013-03-11 01:34:00,
2013-03-10 21:40:00,27.0,21.0,30.54,SE,135,0.0,0.0,73,0.00,,,0.00,Rainwise IP-100,2013-03-11 01:40:00,
2013-03-10 21:46:00,27.0,21.0,30.54,SE,135,0.0,0.0,73,0.00,,,0.00,Rainwise IP-100,2013-03-11 01:46:00,
2013-03-10 21:51:00,28.0,21.0,30.55,WSW,247,0.0,0.0,73,0.00,,,0.00,Rainwise IP-100,2013-03-11 01:51:00,
2013-03-10 21:56:00,28.0,21.0,30.55,SE,135,0.0,0.0,73,0.00,,,0.00,Rainwise IP-100,2013-03-11 01:56:00,
2013-03-10 22:01:00,28.0,21.0,30.54,South,180,0.0,0.0,73,0.00,,,0.00,Rainwise IP-100,2013-03-11 02:01:00,
2013-03-10 22:06:00,28.0,21.0,30.54,WSW,247,0.0,3.0,73,0.00,,,0.00,Rainwise IP-100,2013-03-11 02:06:00,
2013-03-10 22:11:00,28.0,21.0,30.54,NW,315,0.0,0.0,73,0.00,,,0.00,Rainwise IP-100,2013-03-11 02:11:00,
2013-03-10 22:16:00,29.0,23.0,30.54,SW,225,0.0,0.0,73,0.00,,,0.00,Rainwise IP-100,2013-03-11 02:16:00,
2013-03-10 22:21:00,29.0,23.0,30.54,SSW,202,0.0,0.0,73,0.00,,,0.00,Rainwise IP-100,2013-03-11 02:21:00,
2013-03-10 22:26:00,29.0,23.0,30.53,SSW,202,0.0,0.0,73,0.00,,,0.00,Rainwise IP-100,2013-03-11 02:26:00,
2013-03-10 22:32:00,29.0,23.0,30.53,SSW,202,0.0,0.0,72,0.00,,,0.00,Rainwise IP-100,2013-03-11 02:32:00,
2013-03-10 22:37:00,29.0,23.0,30.53,SSW,202,0.0,0.0,72,0.00,,,0.00,Rainwise IP-100,2013-03-11 02:37:00,
2013-03-10 22:42:00,29.0,23.0,30.52,SSE,157,5.0,6.0,72,0.00,,,0.00,Rainwise IP-100,2013-03-11 02:42:00,
2013-03-10 22:47:00,30.0,23.0,30.52,SSE,157,4.0,7.0,72,0.00,,,0.00,Rainwise IP-100,2013-03-11 02:47:00,
2013-03-10 22:52:00,30.0,23.0,30.51,SSE,157,9.0,9.0,72,0.00,,,0.00,Rainwise IP-100,2013-03-11 02:52:00,
2013-03-10 22:57:00,30.0,23.0,30.51,SE,135,6.0,10.0,72,0.00,,,0.00,Rainwise IP-100,2013-03-11 02:57:00,
2013-03-10 23:02:00,30.0,23.0,30.51,SW,225,0.0,6.0,72,0.00,,,0.00,Rainwise IP-100,2013-03-11 03:02:00,
2013-03-10 23:07:00,30.0,23.0,30.52,SSW,202,0.0,0.0,72,0.00,,,0.00,Rainwise IP-100,2013-03-11 03:07:00,
2013-03-10 23:12:00,30.0,23.0,30.51,SSE,157,0.0,4.0,72,0.00,,,0.00,Rainwise IP-100,2013-03-11 03:12:00,
2013-03-10 23:17:00,30.0,23.0,30.51,SSE,157,0.0,4.0,72,0.00,,,0.00,Rainwise IP-100,2013-03-11 03:17:00,
2013-03-10 23:22:00,30.0,23.0,30.52,WNW,292,0.0,0.0,72,0.00,,,0.00,Rainwise IP-100,2013-03-11 03:22:00,
2013-03-10 23:27:00,30.0,23.0,30.51,SSE,157,0.0,0.0,72,0.00,,,0.00,Rainwise IP-100,2013-03-11 03:27:00,
2013-03-10 23:32:00,30.0,23.0,30.52,West,270,0.0,0.0,72,0.00,,,0.00,Rainwise IP-100,2013-03-11 03:32:00,
2013-03-10 23:37:00,30.0,23.0,30.52,West,270,0.0,0.0,72,0.00,,,0.00,Rainwise IP-100,2013-03-11 03:37:00,
2013-03-10 23:42:00,30.0,23.0,30.52,West,270,0.0,0.0,72,0.00,,,0.00,Rainwise IP-100,2013-03-11 03:42:00,
2013-03-10 23:47:00,30.0,23.0,30.51,West,270,0.0,0.0,72,0.00,,,0.00,Rainwise IP-100,2013-03-11 03:47:00,
2013-03-10 23:52:00,30.0,23.0,30.51,SSE,157,0.0,0.0,72,0.00,,,0.00,Rainwise IP-100,2013-03-11 03:52:00,
2013-03-10 23:57:00,30.0,23.0,30.52,SSE,157,0.0,0.0,72,0.00,,,0.00,Rainwise IP-100,2013-03-11 03:57:00,